Year,Month,Day,Hour,Minute,Value (Times are PST for temperature in C)
2014,08,23,00,00,16.60
2014,08,23,00,01,16.60
2014,08,23,00,02,16.60
2014,08,23,00,03,16.60
2014,08,23,00,04,16.60
2014,08,23,00,05,16.60
2014,08,23,00,06,16.60
2014,08,23,00,07,16.60
2014,08,23,00,08,16.60
2014,08,23,00,09,16.60
2014,08,23,00,10,16.60
2014,08,23,00,11,16.60
2014,08,23,00,12,16.60
2014,08,23,00,13,16.60
2014,08,23,00,14,16.60
2014,08,23,00,15,16.60
2014,08,23,00,16,16.60
2014,08,23,00,17,16.60
2014,08,23,00,18,16.50
2014,08,23,00,19,16.50
2014,08,23,00,20,16.50
2014,08,23,00,21,16.40
2014,08,23,00,22,16.40
2014,08,23,00,23,16.40
2014,08,23,00,24,16.30
2014,08,23,00,25,16.30
2014,08,23,00,26,16.20
2014,08,23,00,27,16.20
2014,08,23,00,28,16.10
2014,08,23,00,29,16.10
2014,08,23,00,30,16.10
2014,08,23,00,31,16.10
2014,08,23,00,32,16.10
2014,08,23,00,33,16.10
2014,08,23,00,34,16.10
2014,08,23,00,35,16.10
2014,08,23,00,36,16.10
2014,08,23,00,37,16.10
2014,08,23,00,38,16.10
2014,08,23,00,39,16.00
2014,08,23,00,40,16.00
2014,08,23,00,41,16.00
2014,08,23,00,42,15.90
2014,08,23,00,43,15.90
2014,08,23,00,44,15.90
2014,08,23,00,45,15.90
2014,08,23,00,46,15.90
2014,08,23,00,47,15.90
2014,08,23,00,48,15.90
2014,08,23,00,49,15.90
2014,08,23,00,50,16.00
2014,08,23,00,51,16.00
2014,08,23,00,52,16.00
2014,08,23,00,53,16.00
2014,08,23,00,54,16.00
2014,08,23,00,55,16.00
2014,08,23,00,56,16.10
2014,08,23,00,57,16.10
2014,08,23,00,58,16.10
2014,08,23,00,59,16.10
2014,08,23,01,00,16.10
2014,08,23,01,01,16.10
2014,08,23,01,02,16.10
2014,08,23,01,03,16.10
2014,08,23,01,04,16.10
2014,08,23,01,05,16.10
2014,08,23,01,06,16.10
2014,08,23,01,07,16.10
2014,08,23,01,08,16.10
2014,08,23,01,09,16.10
2014,08,23,01,10,16.10
2014,08,23,01,11,16.10
2014,08,23,01,12,16.00
2014,08,23,01,13,16.00
2014,08,23,01,14,16.00
2014,08,23,01,15,16.00
2014,08,23,01,16,16.00
2014,08,23,01,17,16.00
2014,08,23,01,18,16.00
2014,08,23,01,19,15.90
2014,08,23,01,20,15.90
2014,08,23,01,21,15.90
2014,08,23,01,22,15.90
2014,08,23,01,23,15.90
2014,08,23,01,24,15.90
2014,08,23,01,25,15.90
2014,08,23,01,26,15.90
2014,08,23,01,27,15.80
2014,08,23,01,28,15.80
2014,08,23,01,29,15.80
2014,08,23,01,30,15.80
2014,08,23,01,31,15.80
2014,08,23,01,32,15.80
2014,08,23,01,33,15.80
2014,08,23,01,34,15.80
2014,08,23,01,35,15.80
2014,08,23,01,36,15.80
2014,08,23,01,37,15.80
2014,08,23,01,38,15.80
2014,08,23,01,39,15.70
2014,08,23,01,40,15.70
2014,08,23,01,41,15.70
2014,08,23,01,42,15.70
2014,08,23,01,43,15.70
2014,08,23,01,44,15.70
2014,08,23,01,45,15.70
2014,08,23,01,46,15.70
2014,08,23,01,47,15.70
2014,08,23,01,48,15.70
2014,08,23,01,49,15.70
2014,08,23,01,50,15.70
2014,08,23,01,51,15.60
2014,08,23,01,52,15.60
2014,08,23,01,53,15.60
2014,08,23,01,54,15.50
2014,08,23,01,55,15.50
2014,08,23,01,56,15.50
2014,08,23,01,57,15.40
2014,08,23,01,58,15.40
2014,08,23,01,59,15.40
2014,08,23,02,00,15.40
2014,08,23,02,01,15.40
2014,08,23,02,02,15.30
2014,08,23,02,03,15.30
2014,08,23,02,04,15.30
2014,08,23,02,05,15.30
2014,08,23,02,06,15.30
2014,08,23,02,07,15.30
2014,08,23,02,08,15.20
2014,08,23,02,09,15.20
2014,08,23,02,10,15.20
2014,08,23,02,11,15.20
2014,08,23,02,12,15.20
2014,08,23,02,13,15.20
2014,08,23,02,14,15.10
2014,08,23,02,15,15.10
2014,08,23,02,16,15.10
2014,08,23,02,17,15.00
2014,08,23,02,18,15.00
2014,08,23,02,19,14.90
2014,08,23,02,20,14.90
2014,08,23,02,21,14.90
2014,08,23,02,22,14.80
2014,08,23,02,23,14.80
2014,08,23,02,24,14.80
2014,08,23,02,25,14.80
2014,08,23,02,26,14.80
2014,08,23,02,27,14.80
2014,08,23,02,28,14.70
2014,08,23,02,29,14.70
2014,08,23,02,30,14.70
2014,08,23,02,31,14.70
2014,08,23,02,32,14.60
2014,08,23,02,33,14.60
2014,08,23,02,34,14.60
2014,08,23,02,35,14.50
2014,08,23,02,36,14.50
2014,08,23,02,37,14.50
2014,08,23,02,38,14.40
2014,08,23,02,39,14.40
2014,08,23,02,40,14.40
2014,08,23,02,41,14.40
2014,08,23,02,42,14.30
2014,08,23,02,43,14.30
2014,08,23,02,44,14.30
2014,08,23,02,45,14.30
2014,08,23,02,46,14.30
2014,08,23,02,47,14.30
2014,08,23,02,48,14.30
2014,08,23,02,49,14.30
2014,08,23,02,50,14.30
2014,08,23,02,51,14.30
2014,08,23,02,52,14.30
2014,08,23,02,53,14.30
2014,08,23,02,54,14.30
2014,08,23,02,55,14.30
2014,08,23,02,56,14.30
2014,08,23,02,57,14.20
2014,08,23,02,58,14.20
2014,08,23,02,59,14.20
2014,08,23,03,00,14.20
2014,08,23,03,01,14.30
2014,08,23,03,02,14.30
2014,08,23,03,03,14.30
2014,08,23,03,04,14.30
2014,08,23,03,05,14.30
2014,08,23,03,06,14.30
2014,08,23,03,07,14.30
2014,08,23,03,08,14.30
2014,08,23,03,09,14.30
2014,08,23,03,10,14.30
2014,08,23,03,11,14.30
2014,08,23,03,12,14.30
2014,08,23,03,13,14.30
2014,08,23,03,14,14.30
2014,08,23,03,15,14.30
2014,08,23,03,16,14.30
2014,08,23,03,17,14.30
2014,08,23,03,18,14.30
2014,08,23,03,19,14.30
2014,08,23,03,20,14.30
2014,08,23,03,21,14.30
2014,08,23,03,22,14.30
2014,08,23,03,23,14.30
2014,08,23,03,24,14.30
2014,08,23,03,25,14.30
2014,08,23,03,26,14.30
2014,08,23,03,27,14.30
2014,08,23,03,28,14.30
2014,08,23,03,29,14.30
2014,08,23,03,30,14.30
2014,08,23,03,31,14.30
2014,08,23,03,32,14.20
2014,08,23,03,33,14.20
2014,08,23,03,34,14.20
2014,08,23,03,35,14.20
2014,08,23,03,36,14.10
2014,08,23,03,37,14.10
2014,08,23,03,38,14.10
2014,08,23,03,39,14.10
2014,08,23,03,40,14.10
2014,08,23,03,41,14.20
2014,08,23,03,42,14.20
2014,08,23,03,43,14.20
2014,08,23,03,44,14.20
2014,08,23,03,45,14.20
2014,08,23,03,46,14.20
2014,08,23,03,47,14.20
2014,08,23,03,48,14.20
2014,08,23,03,49,14.20
2014,08,23,03,50,14.30
2014,08,23,03,51,14.30
2014,08,23,03,52,14.30
2014,08,23,03,53,14.30
2014,08,23,03,54,14.40
2014,08,23,03,55,14.40
2014,08,23,03,56,14.40
2014,08,23,03,57,14.40
2014,08,23,03,58,14.50
2014,08,23,03,59,14.50
2014,08,23,04,00,14.60
2014,08,23,04,01,14.60
2014,08,23,04,02,14.60
2014,08,23,04,03,14.70
2014,08,23,04,04,14.70
2014,08,23,04,05,14.70
2014,08,23,04,06,14.80
2014,08,23,04,07,14.80
2014,08,23,04,08,14.90
2014,08,23,04,09,14.90
2014,08,23,04,10,14.90
2014,08,23,04,11,14.90
2014,08,23,04,12,14.90
2014,08,23,04,13,14.90
2014,08,23,04,14,14.90
2014,08,23,04,15,14.80
2014,08,23,04,16,14.80
2014,08,23,04,17,14.80
2014,08,23,04,18,14.80
2014,08,23,04,19,14.80
2014,08,23,04,20,14.70
2014,08,23,04,21,14.70
2014,08,23,04,22,14.70
2014,08,23,04,23,14.70
2014,08,23,04,24,14.70
2014,08,23,04,25,14.70
2014,08,23,04,26,14.60
2014,08,23,04,27,14.60
2014,08,23,04,28,14.60
2014,08,23,04,29,14.50
2014,08,23,04,30,14.50
2014,08,23,04,31,14.50
2014,08,23,04,32,14.40
2014,08,23,04,33,14.40
2014,08,23,04,34,14.30
2014,08,23,04,35,14.30
2014,08,23,04,36,14.20
2014,08,23,04,37,14.20
2014,08,23,04,38,14.20
2014,08,23,04,39,14.10
2014,08,23,04,40,14.10
2014,08,23,04,41,14.10
2014,08,23,04,42,14.00
2014,08,23,04,43,14.00
2014,08,23,04,44,14.00
2014,08,23,04,45,13.90
2014,08,23,04,46,13.90
2014,08,23,04,47,13.90
2014,08,23,04,48,13.90
2014,08,23,04,49,13.90
2014,08,23,04,50,13.90
2014,08,23,04,51,13.80
2014,08,23,04,52,13.80
2014,08,23,04,53,13.80
2014,08,23,04,54,13.80
2014,08,23,04,55,13.80
2014,08,23,04,56,13.80
2014,08,23,04,57,13.90
2014,08,23,04,58,13.90
2014,08,23,04,59,13.90
2014,08,23,05,00,13.90
2014,08,23,05,01,13.90
2014,08,23,05,02,13.90
2014,08,23,05,03,13.90
2014,08,23,05,04,13.80
2014,08,23,05,05,13.80
2014,08,23,05,06,13.80
2014,08,23,05,07,13.80
2014,08,23,05,08,13.80
2014,08,23,05,09,13.80
2014,08,23,05,10,13.80
2014,08,23,05,11,13.80
2014,08,23,05,12,13.90
2014,08,23,05,13,13.90
2014,08,23,05,14,13.90
2014,08,23,05,15,14.00
2014,08,23,05,16,14.00
2014,08,23,05,17,13.90
2014,08,23,05,18,13.90
2014,08,23,05,19,13.90
2014,08,23,05,20,13.80
2014,08,23,05,21,13.80
2014,08,23,05,22,13.70
2014,08,23,05,23,13.60
2014,08,23,05,24,13.60
2014,08,23,05,25,13.50
2014,08,23,05,26,13.50
2014,08,23,05,27,13.40
2014,08,23,05,28,13.40
2014,08,23,05,29,13.40
2014,08,23,05,30,13.30
2014,08,23,05,31,13.30
2014,08,23,05,32,13.30
2014,08,23,05,33,13.30
2014,08,23,05,34,13.30
2014,08,23,05,35,13.30
2014,08,23,05,36,13.30
2014,08,23,05,37,13.20
2014,08,23,05,38,13.20
2014,08,23,05,39,13.20
2014,08,23,05,40,13.20
2014,08,23,05,41,13.20
2014,08,23,05,42,13.20
2014,08,23,05,43,13.20
2014,08,23,05,44,13.20
2014,08,23,05,45,13.20
2014,08,23,05,46,13.20
2014,08,23,05,47,13.20
2014,08,23,05,48,13.20
2014,08,23,05,49,13.20
2014,08,23,05,50,13.20
2014,08,23,05,51,13.20
2014,08,23,05,52,13.20
2014,08,23,05,53,13.20
2014,08,23,05,54,13.20
2014,08,23,05,55,13.20
2014,08,23,05,56,13.20
2014,08,23,05,57,13.10
2014,08,23,05,58,13.20
2014,08,23,05,59,13.20
2014,08,23,06,00,13.20
2014,08,23,06,01,13.20
2014,08,23,06,02,13.20
2014,08,23,06,03,13.20
2014,08,23,06,04,13.20
2014,08,23,06,05,13.20
2014,08,23,06,06,13.20
2014,08,23,06,07,13.20
2014,08,23,06,08,13.20
2014,08,23,06,09,13.20
2014,08,23,06,10,13.30
2014,08,23,06,11,13.30
2014,08,23,06,12,13.30
2014,08,23,06,13,13.30
2014,08,23,06,14,13.30
2014,08,23,06,15,13.30
2014,08,23,06,16,13.30
2014,08,23,06,17,13.40
2014,08,23,06,18,13.40
2014,08,23,06,19,13.50
2014,08,23,06,20,13.50
2014,08,23,06,21,13.60
2014,08,23,06,22,13.60
2014,08,23,06,23,13.70
2014,08,23,06,24,13.80
2014,08,23,06,25,13.80
2014,08,23,06,26,13.80
2014,08,23,06,27,13.90
2014,08,23,06,28,13.90
2014,08,23,06,29,14.00
2014,08,23,06,30,14.00
2014,08,23,06,31,14.00
2014,08,23,06,32,14.00
2014,08,23,06,33,14.00
2014,08,23,06,34,13.90
2014,08,23,06,35,13.90
2014,08,23,06,36,13.90
2014,08,23,06,37,13.80
2014,08,23,06,38,13.80
2014,08,23,06,39,13.80
2014,08,23,06,40,13.80
2014,08,23,06,41,13.80
2014,08,23,06,42,13.80
2014,08,23,06,43,13.90
2014,08,23,06,44,13.90
2014,08,23,06,45,13.90
2014,08,23,06,46,13.90
2014,08,23,06,47,13.90
2014,08,23,06,48,13.90
2014,08,23,06,49,13.90
2014,08,23,06,50,13.90
2014,08,23,06,51,13.90
2014,08,23,06,52,13.90
2014,08,23,06,53,13.90
2014,08,23,06,54,13.90
2014,08,23,06,55,13.90
2014,08,23,06,56,13.90
2014,08,23,06,57,13.90
2014,08,23,06,58,13.90
2014,08,23,06,59,13.90
2014,08,23,07,00,13.90
2014,08,23,07,01,13.90
2014,08,23,07,02,13.90
2014,08,23,07,03,13.90
2014,08,23,07,04,13.90
2014,08,23,07,05,13.90
2014,08,23,07,06,14.00
2014,08,23,07,07,14.00
2014,08,23,07,08,14.00
2014,08,23,07,09,14.10
2014,08,23,07,10,14.10
2014,08,23,07,11,14.10
2014,08,23,07,12,14.20
2014,08,23,07,13,14.20
2014,08,23,07,14,14.30
2014,08,23,07,15,14.30
2014,08,23,07,16,14.30
2014,08,23,07,17,14.30
2014,08,23,07,18,14.30
2014,08,23,07,19,14.30
2014,08,23,07,20,14.30
2014,08,23,07,21,14.30
2014,08,23,07,22,14.30
2014,08,23,07,23,14.30
2014,08,23,07,24,14.40
2014,08,23,07,25,14.40
2014,08,23,07,26,14.40
2014,08,23,07,27,14.50
2014,08,23,07,28,14.50
2014,08,23,07,29,14.60
2014,08,23,07,30,14.60
2014,08,23,07,31,14.60
2014,08,23,07,32,14.70
2014,08,23,07,33,14.70
2014,08,23,07,34,14.80
2014,08,23,07,35,14.90
2014,08,23,07,36,15.00
2014,08,23,07,37,15.00
2014,08,23,07,38,15.10
2014,08,23,07,39,15.20
2014,08,23,07,40,15.30
2014,08,23,07,41,15.30
2014,08,23,07,42,15.40
2014,08,23,07,43,15.50
2014,08,23,07,44,15.50
2014,08,23,07,45,15.50
2014,08,23,07,46,15.60
2014,08,23,07,47,15.60
2014,08,23,07,48,15.60
2014,08,23,07,49,15.60
2014,08,23,07,50,15.60
2014,08,23,07,51,15.60
2014,08,23,07,52,15.60
2014,08,23,07,53,15.60
2014,08,23,07,54,15.70
2014,08,23,07,55,15.70
2014,08,23,07,56,15.70
2014,08,23,07,57,15.70
2014,08,23,07,58,15.70
2014,08,23,07,59,15.80
2014,08,23,08,00,15.80
2014,08,23,08,01,15.80
2014,08,23,08,02,15.80
2014,08,23,08,03,15.80
2014,08,23,08,04,15.80
2014,08,23,08,05,15.80
2014,08,23,08,06,15.80
2014,08,23,08,07,15.80
2014,08,23,08,08,15.80
2014,08,23,08,09,15.90
2014,08,23,08,10,15.90
2014,08,23,08,11,15.90
2014,08,23,08,12,15.90
2014,08,23,08,13,15.90
2014,08,23,08,14,15.90
2014,08,23,08,15,15.90
2014,08,23,08,16,16.00
2014,08,23,08,17,16.00
2014,08,23,08,18,16.00
2014,08,23,08,19,16.00
2014,08,23,08,20,16.00
2014,08,23,08,21,16.10
2014,08,23,08,22,16.10
2014,08,23,08,23,16.10
2014,08,23,08,24,16.10
2014,08,23,08,25,16.10
2014,08,23,08,26,16.10
2014,08,23,08,27,16.10
2014,08,23,08,28,16.10
2014,08,23,08,29,16.20
2014,08,23,08,30,16.20
2014,08,23,08,31,16.20
2014,08,23,08,32,16.30
2014,08,23,08,33,16.30
2014,08,23,08,34,16.40
2014,08,23,08,35,16.50
2014,08,23,08,36,16.50
2014,08,23,08,37,16.60
2014,08,23,08,38,16.70
2014,08,23,08,39,16.70
2014,08,23,08,40,16.70
2014,08,23,08,41,16.80
2014,08,23,08,42,16.80
2014,08,23,08,43,16.90
2014,08,23,08,44,17.00
2014,08,23,08,45,17.00
2014,08,23,08,46,17.10
2014,08,23,08,47,17.10
2014,08,23,08,48,17.20
2014,08,23,08,49,17.20
2014,08,23,08,50,17.30
2014,08,23,08,51,17.30
2014,08,23,08,52,17.30
2014,08,23,08,53,17.30
2014,08,23,08,54,17.40
2014,08,23,08,55,17.40
2014,08,23,08,56,17.40
2014,08,23,08,57,17.50
2014,08,23,08,58,17.50
2014,08,23,08,59,17.60
2014,08,23,09,00,17.60
2014,08,23,09,01,17.70
2014,08,23,09,02,17.70
2014,08,23,09,03,17.70
2014,08,23,09,04,17.80
2014,08,23,09,05,17.80
2014,08,23,09,06,17.80
2014,08,23,09,07,17.80
2014,08,23,09,08,17.80
2014,08,23,09,09,17.80
2014,08,23,09,10,17.80
2014,08,23,09,11,17.80
2014,08,23,09,12,17.80
2014,08,23,09,13,17.80
2014,08,23,09,14,17.80
2014,08,23,09,15,17.90
2014,08,23,09,16,17.90
2014,08,23,09,17,18.00
2014,08,23,09,18,18.00
2014,08,23,09,19,18.10
2014,08,23,09,20,18.20
2014,08,23,09,21,18.30
2014,08,23,09,22,18.40
2014,08,23,09,23,18.40
2014,08,23,09,24,18.50
2014,08,23,09,25,18.60
2014,08,23,09,26,18.60
2014,08,23,09,27,18.60
2014,08,23,09,28,18.60
2014,08,23,09,29,18.60
2014,08,23,09,30,18.60
2014,08,23,09,31,18.70
2014,08,23,09,32,18.70
2014,08,23,09,33,18.80
2014,08,23,09,34,18.80
2014,08,23,09,35,18.80
2014,08,23,09,36,18.90
2014,08,23,09,37,18.90
2014,08,23,09,38,19.00
2014,08,23,09,39,19.00
2014,08,23,09,40,19.10
2014,08,23,09,41,19.10
2014,08,23,09,42,19.10
2014,08,23,09,43,19.20
2014,08,23,09,44,19.20
2014,08,23,09,45,19.30
2014,08,23,09,46,19.30
2014,08,23,09,47,19.30
2014,08,23,09,48,19.30
2014,08,23,09,49,19.40
2014,08,23,09,50,19.40
2014,08,23,09,51,19.40
2014,08,23,09,52,19.50
2014,08,23,09,53,19.50
2014,08,23,09,54,19.50
2014,08,23,09,55,19.50
2014,08,23,09,56,19.50
2014,08,23,09,57,19.50
2014,08,23,09,58,19.60
2014,08,23,09,59,19.60
2014,08,23,10,00,19.60
2014,08,23,10,01,19.60
2014,08,23,10,02,19.60
2014,08,23,10,03,19.70
2014,08,23,10,04,19.70
2014,08,23,10,05,19.80
2014,08,23,10,06,19.90
2014,08,23,10,07,19.90
2014,08,23,10,08,19.90
2014,08,23,10,09,19.90
2014,08,23,10,10,19.90
2014,08,23,10,11,19.90
2014,08,23,10,12,20.00
2014,08,23,10,13,20.00
2014,08,23,10,14,19.90
2014,08,23,10,15,19.90
2014,08,23,10,16,19.90
2014,08,23,10,17,19.90
2014,08,23,10,18,19.90
2014,08,23,10,19,19.90
2014,08,23,10,20,19.90
2014,08,23,10,21,19.90
2014,08,23,10,22,19.90
2014,08,23,10,23,19.90
2014,08,23,10,24,19.80
2014,08,23,10,25,19.80
2014,08,23,10,26,19.80
2014,08,23,10,27,19.70
2014,08,23,10,28,19.70
2014,08,23,10,29,19.70
2014,08,23,10,30,19.80
2014,08,23,10,31,19.80
2014,08,23,10,32,19.90
2014,08,23,10,33,19.90
2014,08,23,10,34,19.90
2014,08,23,10,35,20.00
2014,08,23,10,36,20.10
2014,08,23,10,37,20.20
2014,08,23,10,38,20.30
2014,08,23,10,39,20.30
2014,08,23,10,40,20.40
2014,08,23,10,41,20.50
2014,08,23,10,42,20.70
2014,08,23,10,43,20.80
2014,08,23,10,44,21.00
2014,08,23,10,45,21.10
2014,08,23,10,46,21.20
2014,08,23,10,47,21.20
2014,08,23,10,48,21.20
2014,08,23,10,49,21.20
2014,08,23,10,50,21.30
2014,08,23,10,51,21.30
2014,08,23,10,52,21.30
2014,08,23,10,53,21.30
2014,08,23,10,54,21.30
2014,08,23,10,55,21.40
2014,08,23,10,56,21.40
2014,08,23,10,57,21.50
2014,08,23,10,58,21.50
2014,08,23,10,59,21.50
2014,08,23,11,00,21.60
2014,08,23,11,01,21.60
2014,08,23,11,02,21.60
2014,08,23,11,03,21.60
2014,08,23,11,04,21.60
2014,08,23,11,05,21.60
2014,08,23,11,06,21.60
2014,08,23,11,07,21.60
2014,08,23,11,08,21.60
2014,08,23,11,09,21.60
2014,08,23,11,10,21.60
2014,08,23,11,11,21.60
2014,08,23,11,12,21.60
2014,08,23,11,13,21.70
2014,08,23,11,14,21.80
2014,08,23,11,15,21.90
2014,08,23,11,16,22.00
2014,08,23,11,17,22.10
2014,08,23,11,18,22.20
2014,08,23,11,19,22.20
2014,08,23,11,20,22.10
2014,08,23,11,21,22.10
2014,08,23,11,22,22.10
2014,08,23,11,23,22.10
2014,08,23,11,24,22.10
2014,08,23,11,25,22.20
2014,08,23,11,26,22.20
2014,08,23,11,27,22.20
2014,08,23,11,28,22.30
2014,08,23,11,29,22.30
2014,08,23,11,30,22.40
2014,08,23,11,31,22.50
2014,08,23,11,32,22.60
2014,08,23,11,33,22.70
2014,08,23,11,34,22.70
2014,08,23,11,35,22.70
2014,08,23,11,36,22.70
2014,08,23,11,37,22.70
2014,08,23,11,38,22.80
2014,08,23,11,39,22.80
2014,08,23,11,40,22.80
2014,08,23,11,41,22.80
2014,08,23,11,42,22.80
2014,08,23,11,43,22.80
2014,08,23,11,44,22.80
2014,08,23,11,45,22.80
2014,08,23,11,46,22.90
2014,08,23,11,47,22.90
2014,08,23,11,48,22.90
2014,08,23,11,49,22.90
2014,08,23,11,50,23.00
2014,08,23,11,51,23.00
2014,08,23,11,52,23.10
2014,08,23,11,53,23.10
2014,08,23,11,54,23.20
2014,08,23,11,55,23.30
2014,08,23,11,56,23.30
2014,08,23,11,57,23.30
2014,08,23,11,58,23.40
2014,08,23,11,59,23.40
2014,08,23,12,00,23.40
2014,08,23,12,01,23.40
2014,08,23,12,02,23.50
2014,08,23,12,03,23.50
2014,08,23,12,04,23.50
2014,08,23,12,05,23.60
2014,08,23,12,06,23.60
2014,08,23,12,07,23.60
2014,08,23,12,08,23.60
2014,08,23,12,09,23.50
2014,08,23,12,10,23.50
2014,08,23,12,11,23.40
2014,08,23,12,12,23.40
2014,08,23,12,13,23.40
2014,08,23,12,14,23.30
2014,08,23,12,15,23.30
2014,08,23,12,16,23.40
2014,08,23,12,17,23.40
2014,08,23,12,18,23.40
2014,08,23,12,19,23.30
2014,08,23,12,20,23.30
2014,08,23,12,21,23.20
2014,08,23,12,22,23.20
2014,08,23,12,23,23.20
2014,08,23,12,24,23.20
2014,08,23,12,25,23.20
2014,08,23,12,26,23.20
2014,08,23,12,27,23.20
2014,08,23,12,28,23.30
2014,08,23,12,29,23.40
2014,08,23,12,30,23.50
2014,08,23,12,31,23.60
2014,08,23,12,32,23.70
2014,08,23,12,33,23.80
2014,08,23,12,34,23.90
2014,08,23,12,35,23.90
2014,08,23,12,36,23.90
2014,08,23,12,37,23.90
2014,08,23,12,38,24.00
2014,08,23,12,39,23.90
2014,08,23,12,40,23.90
2014,08,23,12,41,23.90
2014,08,23,12,42,23.90
2014,08,23,12,43,23.90
2014,08,23,12,44,23.90
2014,08,23,12,45,23.80
2014,08,23,12,46,23.80
2014,08,23,12,47,23.90
2014,08,23,12,48,23.90
2014,08,23,12,49,23.90
2014,08,23,12,50,23.80
2014,08,23,12,51,23.70
2014,08,23,12,52,23.60
2014,08,23,12,53,23.60
2014,08,23,12,54,23.60
2014,08,23,12,55,23.70
2014,08,23,12,56,23.80
2014,08,23,12,57,23.80
2014,08,23,12,58,23.90
2014,08,23,12,59,23.90
2014,08,23,13,00,23.90
2014,08,23,13,01,23.90
2014,08,23,13,02,23.90
2014,08,23,13,03,23.90
2014,08,23,13,04,23.90
2014,08,23,13,05,23.90
2014,08,23,13,06,23.80
2014,08,23,13,07,23.90
2014,08,23,13,08,23.90
2014,08,23,13,09,24.00
2014,08,23,13,10,24.10
2014,08,23,13,11,24.10
2014,08,23,13,12,24.10
2014,08,23,13,13,24.10
2014,08,23,13,14,24.10
2014,08,23,13,15,24.20
2014,08,23,13,16,24.20
2014,08,23,13,17,24.20
2014,08,23,13,18,24.10
2014,08,23,13,19,24.00
2014,08,23,13,20,23.90
2014,08,23,13,21,23.90
2014,08,23,13,22,24.00
2014,08,23,13,23,24.00
2014,08,23,13,24,24.00
2014,08,23,13,25,24.00
2014,08,23,13,26,24.10
2014,08,23,13,27,24.20
2014,08,23,13,28,24.30
2014,08,23,13,29,24.40
2014,08,23,13,30,24.40
2014,08,23,13,31,24.50
2014,08,23,13,32,24.50
2014,08,23,13,33,24.50
2014,08,23,13,34,24.50
2014,08,23,13,35,24.50
2014,08,23,13,36,24.50
2014,08,23,13,37,24.50
2014,08,23,13,38,24.60
2014,08,23,13,39,24.60
2014,08,23,13,40,24.60
2014,08,23,13,41,24.50
2014,08,23,13,42,24.50
2014,08,23,13,43,24.50
2014,08,23,13,44,24.50
2014,08,23,13,45,24.50
2014,08,23,13,46,24.50
2014,08,23,13,47,24.40
2014,08,23,13,48,24.40
2014,08,23,13,49,24.30
2014,08,23,13,50,24.40
2014,08,23,13,51,24.40
2014,08,23,13,52,24.50
2014,08,23,13,53,24.50
2014,08,23,13,54,24.60
2014,08,23,13,55,24.70
2014,08,23,13,56,24.80
2014,08,23,13,57,24.90
2014,08,23,13,58,25.00
2014,08,23,13,59,25.00
2014,08,23,14,00,25.10
2014,08,23,14,01,25.10
2014,08,23,14,02,25.00
2014,08,23,14,03,24.90
2014,08,23,14,04,24.90
2014,08,23,14,05,24.90
2014,08,23,14,06,24.90
2014,08,23,14,07,24.90
2014,08,23,14,08,24.90
2014,08,23,14,09,24.90
2014,08,23,14,10,24.90
2014,08,23,14,11,24.90
2014,08,23,14,12,25.00
2014,08,23,14,13,25.10
2014,08,23,14,14,25.10
2014,08,23,14,15,25.10
2014,08,23,14,16,25.20
2014,08,23,14,17,25.20
2014,08,23,14,18,25.30
2014,08,23,14,19,25.30
2014,08,23,14,20,25.30
2014,08,23,14,21,25.30
2014,08,23,14,22,25.30
2014,08,23,14,23,25.30
2014,08,23,14,24,25.30
2014,08,23,14,25,25.30
2014,08,23,14,26,25.30
2014,08,23,14,27,25.20
2014,08,23,14,28,25.20
2014,08,23,14,29,25.20
2014,08,23,14,30,25.10
2014,08,23,14,31,25.10
2014,08,23,14,32,25.10
2014,08,23,14,33,25.00
2014,08,23,14,34,25.00
2014,08,23,14,35,25.00
2014,08,23,14,36,25.00
2014,08,23,14,37,25.00
2014,08,23,14,38,25.00
2014,08,23,14,39,25.00
2014,08,23,14,40,25.10
2014,08,23,14,41,25.10
2014,08,23,14,42,25.30
2014,08,23,14,43,25.40
2014,08,23,14,44,25.40
2014,08,23,14,45,25.40
2014,08,23,14,46,25.40
2014,08,23,14,47,25.50
2014,08,23,14,48,25.50
2014,08,23,14,49,25.50
2014,08,23,14,50,25.50
2014,08,23,14,51,25.40
2014,08,23,14,52,25.40
2014,08,23,14,53,25.40
2014,08,23,14,54,25.40
2014,08,23,14,55,25.40
2014,08,23,14,56,25.40
2014,08,23,14,57,25.40
2014,08,23,14,58,25.40
2014,08,23,14,59,25.30
2014,08,23,15,00,25.40
2014,08,23,15,01,25.40
2014,08,23,15,02,25.50
2014,08,23,15,03,25.50
2014,08,23,15,04,25.60
2014,08,23,15,05,25.70
2014,08,23,15,06,25.80
2014,08,23,15,07,25.90
2014,08,23,15,08,25.90
2014,08,23,15,09,25.90
2014,08,23,15,10,25.80
2014,08,23,15,11,25.80
2014,08,23,15,12,25.80
2014,08,23,15,13,25.80
2014,08,23,15,14,25.80
2014,08,23,15,15,25.70
2014,08,23,15,16,25.70
2014,08,23,15,17,25.60
2014,08,23,15,18,25.60
2014,08,23,15,19,25.50
2014,08,23,15,20,25.50
2014,08,23,15,21,25.50
2014,08,23,15,22,25.50
2014,08,23,15,23,25.50
2014,08,23,15,24,25.60
2014,08,23,15,25,25.70
2014,08,23,15,26,25.80
2014,08,23,15,27,25.90
2014,08,23,15,28,26.00
2014,08,23,15,29,26.10
2014,08,23,15,30,26.10
2014,08,23,15,31,26.10
2014,08,23,15,32,26.00
2014,08,23,15,33,26.00
2014,08,23,15,34,26.10
2014,08,23,15,35,26.10
2014,08,23,15,36,26.10
2014,08,23,15,37,26.20
2014,08,23,15,38,26.20
2014,08,23,15,39,26.20
2014,08,23,15,40,26.20
2014,08,23,15,41,26.30
2014,08,23,15,42,26.30
2014,08,23,15,43,26.40
2014,08,23,15,44,26.40
2014,08,23,15,45,26.40
2014,08,23,15,46,26.50
2014,08,23,15,47,26.50
2014,08,23,15,48,26.60
2014,08,23,15,49,26.60
2014,08,23,15,50,26.60
2014,08,23,15,51,26.60
2014,08,23,15,52,26.60
2014,08,23,15,53,26.60
2014,08,23,15,54,26.60
2014,08,23,15,55,26.60
2014,08,23,15,56,26.50
2014,08,23,15,57,26.50
2014,08,23,15,58,26.40
2014,08,23,15,59,26.40
2014,08,23,16,00,26.50
2014,08,23,16,01,26.50
2014,08,23,16,02,26.50
2014,08,23,16,03,26.60
2014,08,23,16,04,26.60
2014,08,23,16,05,26.60
2014,08,23,16,06,26.60
2014,08,23,16,07,26.70
2014,08,23,16,08,26.70
2014,08,23,16,09,26.70
2014,08,23,16,10,26.70
2014,08,23,16,11,26.70
2014,08,23,16,12,26.70
2014,08,23,16,13,26.70
2014,08,23,16,14,26.70
2014,08,23,16,15,26.70
2014,08,23,16,16,26.70
2014,08,23,16,17,26.70
2014,08,23,16,18,26.70
2014,08,23,16,19,26.80
2014,08,23,16,20,26.80
2014,08,23,16,21,26.80
2014,08,23,16,22,26.80
2014,08,23,16,23,26.80
2014,08,23,16,24,26.80
2014,08,23,16,25,26.80
2014,08,23,16,26,26.80
2014,08,23,16,27,26.80
2014,08,23,16,28,26.80
2014,08,23,16,29,26.70
2014,08,23,16,30,26.70
2014,08,23,16,31,26.80
2014,08,23,16,32,26.80
2014,08,23,16,33,26.80
2014,08,23,16,34,26.80
2014,08,23,16,35,26.80
2014,08,23,16,36,26.80
2014,08,23,16,37,26.80
2014,08,23,16,38,26.80
2014,08,23,16,39,26.80
2014,08,23,16,40,26.90
2014,08,23,16,41,27.00
2014,08,23,16,42,27.10
2014,08,23,16,43,27.10
2014,08,23,16,44,27.10
2014,08,23,16,45,27.10
2014,08,23,16,46,27.10
2014,08,23,16,47,27.10
2014,08,23,16,48,27.10
2014,08,23,16,49,27.20
2014,08,23,16,50,27.20
2014,08,23,16,51,27.20
2014,08,23,16,52,27.20
2014,08,23,16,53,27.20
2014,08,23,16,54,27.20
2014,08,23,16,55,27.20
2014,08,23,16,56,27.30
2014,08,23,16,57,27.30
2014,08,23,16,58,27.40
2014,08,23,16,59,27.40
2014,08,23,17,00,27.50
2014,08,23,17,01,27.60
2014,08,23,17,02,27.60
2014,08,23,17,03,27.60
2014,08,23,17,04,27.60
2014,08,23,17,05,27.60
2014,08,23,17,06,27.50
2014,08,23,17,07,27.40
2014,08,23,17,08,27.30
2014,08,23,17,09,27.30
2014,08,23,17,10,27.20
2014,08,23,17,11,27.20
2014,08,23,17,12,27.10
2014,08,23,17,13,27.10
2014,08,23,17,14,27.10
2014,08,23,17,15,27.00
2014,08,23,17,16,27.00
2014,08,23,17,17,27.00
2014,08,23,17,18,27.00
2014,08,23,17,19,27.00